Wetbulb
59.12 59.39 59.38 59.02 58.64 57.30 57.49 57.74 57.60 57.67 58.90 59.70 59.79 59.64 59.77 59.98 59.14 59.75 56.18 64.11 65.46 67.72 68.48 66.52 66.41 67.51 68.00 67.01 67.74 67.98 61.02 57.23 57.19 58.65 59.28 63.66 61.86 65.12 66.71 65.01 66.07 67.78 68.06 70.71 73.00
58.48 58.58 58.82 58.57 57.81 57.24 57.18 56.94 57.31 58.10 59.22 59.41 59.42 59.40 59.44 59.70 59.77 58.14 67.53 69.08 68.36 69.03 65.31 64.66 63.30 64.29 64.31 64.29 66.40 64.54 55.35 55.99 62.39 62.41 60.07 62.29 62.16 63.36 63.33 63.58 64.78 66.67 71.39 71.54 72.59
57.86 58.02 58.07 58.20 57.48 57.13 56.83 56.83 57.34 57.29 59.00 59.36 59.11 59.16 59.46 60.16 59.49 60.08 68.03 68.53 69.14 69.22 66.55 63.91 64.04 63.86 62.52 64.24 64.43 64.01 54.73 63.06 62.76 64.14 63.57 62.80 62.74 63.97 62.43 61.72 65.72 64.55 69.52 71.32 71.90
58.09 57.58 57.56 57.61 57.10 56.95 56.66 56.94 56.95 57.58 58.65 59.09 58.84 58.92 59.70 61.96 54.26 64.00 69.02 69.67 69.56 66.76 65.01 62.63 62.97 62.00 60.68 59.98 63.12 61.28 62.70 63.32 63.31 63.50 62.60 61.82 62.77 61.95 62.63 65.36 67.87 67.40 68.08 71.86 70.94
57.89 57.55 57.09 57.09 57.12 56.68 56.50 56.33 56.62 56.88 57.88 58.45 58.74 59.00 61.70 57.36 60.10 66.99 69.28 68.31 62.14 63.30 62.57 61.84 61.35 61.89 59.43 60.43 61.59 61.12 61.89 62.94 63.84 63.21 62.77 62.52 61.29 61.29 62.96 67.22 68.71 68.81 68.11 70.70 70.95
57.49 57.39 57.28 56.81 56.88 56.41 56.17 56.06 55.83 55.91 56.69 58.47 58.90 58.54 60.46 56.71 64.30 66.70 62.63 60.14 63.03 63.34 62.24 62.44 61.40 62.06 61.26 60.35 60.18 61.26 61.44 61.96 62.53 62.60 62.48 60.25 60.63 61.36 65.57 67.74 68.01 68.51 68.86 69.97 70.81
57.35 57.03 56.99 56.94 56.60 56.46 56.29 55.91 55.82 55.73 56.61 58.39 59.46 62.37 60.61 59.33 65.69 67.96 66.63 62.74 63.90 64.09 61.26 62.64 62.84 61.57 62.54 60.50 62.19 61.25 59.03 61.14 61.02 61.00 60.10 60.95 58.76 59.57 64.72 66.86 66.99 67.63 68.87 69.84 70.79
57.12 56.68 56.64 56.63 56.45 56.35 56.19 56.13 56.19 56.68 56.74 58.90 59.81 62.65 60.05 62.60 66.58 65.62 66.94 64.57 64.49 63.69 62.54 63.21 64.30 62.42 62.08 62.51 61.07 59.13 59.59 55.89 60.00 60.49 60.46 60.27 55.18 61.08 65.15 64.12 64.62 67.17 68.32 69.02 70.32
56.66 56.20 56.20 56.32 56.13 56.06 55.91 55.90 57.48 58.08 58.24 59.86 62.50 62.87 58.05 61.24 61.23 64.51 65.00 62.75 62.54 62.94 63.13 62.94 63.23 61.66 61.91 58.43 56.61 58.15 53.66 54.94 55.63 60.70 59.16 58.71 56.62 62.13 63.88 63.55 63.41 65.81 67.45 68.39 69.87
56.31 55.84 55.65 55.81 55.71 55.66 55.53 55.46 58.29 58.15 60.75 62.98 62.48 59.04 60.96 59.84 63.01 62.94 64.79 63.33 61.49 61.62 60.49 61.80 61.05 59.13 58.67 57.91 49.64 51.00 52.71 52.08 53.89 57.24 59.51 57.04 56.93 59.44 63.06 63.29 63.39 65.57 67.01 67.92 68.70
56.18 55.57 55.28 55.52 55.46 55.19 56.33 60.80 60.24 60.11 60.89 57.77 58.45 59.65 60.33 63.03 63.82 62.01 63.23 62.22 62.91 61.97 58.64 61.24 57.38 54.43 56.31 56.04 58.23 56.76 54.69 54.04 55.78 58.53 56.27 56.35 56.70 58.24 60.67 62.41 62.95 64.69 66.24 66.99 67.49
55.77 55.46 55.20 55.17 55.03 54.67 59.50 59.35 59.27 60.45 56.07 59.29 58.64 59.98 60.67 62.06 59.68 61.82 63.62 60.07 60.16 57.34 59.74 57.57 55.35 58.64 60.06 58.46 56.64 55.92 54.71 53.99 55.74 57.56 56.99 57.11 55.87 58.52 60.00 60.64 62.47 64.01 66.02 66.36 66.74
54.95 54.83 55.11 54.84 54.42 56.58 60.52 59.40 61.55 63.15 57.50 56.32 58.24 58.65 59.50 60.97 58.74 60.10 61.92 61.25 59.28 57.39 56.95 55.93 56.21 59.80 57.84 56.02 54.69 54.71 54.37 55.15 54.35 55.93 56.79 55.08 54.53 56.36 58.82 61.92 63.00 64.30 65.63 66.52 65.81
54.36 54.29 54.42 53.59 54.97 63.12 58.66 61.48 62.64 64.34 55.54 53.51 54.70 57.31 59.82 59.89 57.67 62.45 63.40 61.56 59.22 56.86 57.84 56.72 58.02 56.38 55.46 54.28 55.47 52.62 56.07 55.75 54.73 53.16 49.41 55.27 48.03 54.88 57.85 60.30 62.32 63.48 64.47 64.92 65.81
54.09 54.42 53.89 52.78 62.36 59.48 62.48 64.99 64.70 63.25 47.94 55.51 54.41 61.20 60.05 57.71 58.85 58.88 63.03 61.61 57.30 57.02 56.21 54.63 55.69 55.19 54.31 54.87 56.10 53.68 56.32 55.31 54.61 53.00 52.52 52.50 51.08 53.93 53.54 54.52 56.31 62.88 64.18 65.08 66.38
53.85 53.89 53.32 59.31 62.74 63.22 64.02 65.05 62.18 52.64 48.07 53.69 56.55 55.21 55.82 57.16 57.68 59.22 59.27 61.74 61.06 56.94 56.99 56.14 58.75 56.98 55.87 56.53 56.82 57.40 55.78 55.45 55.01 52.77 47.65 49.19 48.78 50.32 50.91 56.10 58.85 61.43 64.03 64.92 66.04
53.52 53.07 53.59 63.62 62.18 64.42 64.61 61.04 52.00 49.03 57.63 54.04 53.10 54.93 55.08 54.87 55.65 56.30 56.06 56.64 54.54 52.16 52.51 55.60 55.82 57.61 58.18 55.64 57.42 57.11 54.96 49.28 47.07 46.83 46.40 52.75 50.97 53.23 58.15 59.32 59.37 59.39 64.09 64.88 66.69
52.21 51.26 58.80 64.47 65.86 64.34 63.51 55.82 48.51 53.08 54.53 57.49 55.85 55.33 53.29 55.71 55.35 55.65 54.52 53.63 56.90 55.70 53.31 50.74 49.16 55.43 58.60 56.94 54.78 55.13 54.29 48.69 43.22 44.47 47.98 52.12 48.20 53.88 60.30 60.79 61.18 62.01 63.75 64.93 66.36
50.84 66.36 66.30 65.84 65.48 65.60 59.33 50.43 51.84 54.44 56.27 55.35 56.14 53.52 53.24 54.68 54.97 54.79 54.81 54.75 57.10 58.44 52.95 52.26 52.11 57.99 58.41 58.36 58.01 55.15 52.25 55.53 51.66 51.97 47.92 50.30 53.41 57.13 60.07 60.43 60.67 62.61 64.12 64.42 64.58
58.37 65.23 64.38 64.11 65.85 63.11 56.25 49.48 53.70 56.26 56.70 56.37 53.52 55.04 52.77 53.92 53.87 55.43 54.32 57.62 56.20 59.25 60.54 56.40 51.32 56.44 57.31 58.02 58.10 56.87 57.73 51.49 52.25 43.19 41.90 48.43 48.62 50.07 55.28 52.61 60.62 61.22 61.96 63.03 64.24
60.52 62.16 64.12 64.50 64.68 58.63 52.05 52.65 54.35 56.35 57.24 55.67 55.12 55.03 54.99 53.99 55.75 54.10 53.49 56.66 57.91 57.17 59.50 57.62 55.95 55.03 57.39 55.65 54.79 55.70 54.28 53.79 54.73 49.08 43.45 44.44 47.48 57.60 56.57 58.72 58.58 60.30 62.67 62.07 62.24
62.78 59.19 65.51 64.79 54.74 55.44 53.21 54.78 49.10 54.25 57.06 55.69 57.13 56.95 55.41 54.74 54.21 53.52 52.51 55.94 60.86 59.87 56.24 59.67 57.41 52.03 53.26 57.39 58.05 57.29 55.91 55.51 49.15 47.62 51.33 47.42 48.45 57.60 58.22 59.35 61.05 60.60 62.60 62.96 63.07
57.91 62.14 65.54 62.71 52.00 52.99 55.37 53.87 54.56 53.88 55.47 55.85 55.75 57.72 57.99 55.32 53.34 54.98 55.15 60.69 60.52 59.17 59.14 59.66 54.77 49.23 49.75 54.16 58.80 55.61 57.32 56.74 55.22 53.99 49.17 46.67 49.59 57.08 59.04 58.26 57.74 59.92 61.98 63.16 61.00
59.13 58.79 61.06 59.61 58.97 57.65 55.12 54.21 53.22 55.67 55.21 57.15 57.90 58.30 57.17 55.84 57.17 55.07 56.24 59.93 60.77 59.98 58.07 59.29 54.85 51.83 48.50 51.87 55.63 53.35 54.69 54.90 53.57 48.53 50.02 50.67 50.02 53.12 55.13 54.05 56.66 61.70 60.14 59.55 60.22
60.49 61.06 61.17 56.96 57.80 58.67 58.61 57.53 55.45 53.05 56.68 58.47 57.89 58.00 56.84 54.99 55.33 55.57 57.57 60.12 60.72 57.57 59.02 59.85 54.14 55.09 55.69 55.53 55.16 54.37 53.62 52.75 50.99 53.22 47.28 49.14 47.80 50.67 54.04 58.15 60.07 60.08 57.71 53.74 54.34
53.88 54.03 57.43 58.89 61.00 59.27 54.84 57.06 56.15 55.54 56.96 56.07 57.08 57.95 58.08 56.52 56.44 54.81 57.82 57.57 56.91 60.93 58.73 60.42 54.03 55.28 53.20 55.20 54.25 52.66 53.28 52.90 53.02 51.55 53.85 51.62 47.75 55.32 58.09 58.86 59.03 56.62 55.33 53.23 53.89
58.01 59.61 56.70 57.13 59.89 58.36 58.44 58.38 58.26 60.02 60.02 61.16 58.99 58.30 57.50 60.28 62.24 62.25 61.78 60.51 59.81 58.40 57.91 57.05 55.96 53.39 50.28 54.08 53.53 49.11 52.28 52.45 52.09 54.17 53.34 49.70 51.15 54.11 53.31 52.76 51.65 54.36 55.31 54.94 57.59
MSLP
1017.95 1017.60 1017.29 1017.09 1016.90 1016.75 1016.49 1016.23 1016.08 1015.92 1015.67 1015.35 1015.20 1014.99 1014.69 1014.41 1013.87 1013.22 1010.90 1009.77 1009.50 1009.88 1010.11 1008.43 1007.97 1006.86 1006.17 1004.95 1004.64 1004.08 1003.76 1004.54 1004.37 1003.94 1003.24 1003.52 1003.66 1003.99 1004.08 1003.90 1004.61 1005.11 1005.66 1007.01 1008.31
1018.08 1017.74 1017.39 1017.08 1016.92 1016.68 1016.45 1016.31 1016.11 1015.96 1015.67 1015.38 1015.19 1014.96 1014.73 1014.56 1013.09 1010.64 1009.40 1009.65 1009.82 1009.81 1009.25 1007.56 1006.30 1006.13 1004.75 1004.40 1004.01 1003.80 1006.36 1006.10 1003.80 1002.86 1004.20 1003.15 1003.12 1003.33 1003.71 1003.59 1003.88 1004.82 1006.42 1007.35 1008.25
1018.11 1017.68 1017.34 1017.08 1016.83 1016.57 1016.38 1016.21 1016.05 1015.93 1015.66 1015.38 1015.16 1014.96 1014.80 1014.52 1012.05 1008.76 1009.02 1009.42 1009.85 1009.74 1008.62 1007.27 1006.45 1005.68 1004.22 1004.07 1003.69 1003.17 1006.63 1003.51 1003.70 1003.47 1003.39 1002.95 1002.89 1002.89 1003.08 1003.28 1003.92 1004.40 1005.19 1006.95 1007.78
1018.22 1017.76 1017.43 1017.12 1016.84 1016.53 1016.25 1016.08 1016.01 1015.83 1015.56 1015.26 1015.09 1014.89 1014.70 1013.46 1009.27 1008.39 1009.11 1009.38 1009.86 1009.41 1008.37 1006.87 1005.90 1004.74 1004.00 1003.62 1003.95 1003.68 1004.00 1003.82 1003.38 1003.71 1003.54 1003.21 1003.06 1002.88 1003.23 1004.08 1004.96 1004.96 1005.49 1006.66 1007.47
1018.32 1017.87 1017.49 1017.09 1016.71 1016.41 1016.16 1015.97 1015.80 1015.68 1015.43 1015.19 1014.96 1014.79 1014.33 1011.30 1007.87 1008.48 1009.14 1009.54 1009.41 1009.16 1007.79 1006.43 1005.50 1004.59 1003.88 1003.66 1003.75 1003.62 1003.31 1003.59 1003.44 1003.80 1003.44 1003.56 1002.93 1003.18 1003.56 1004.81 1005.23 1005.45 1005.80 1006.36 1007.10
1018.27 1017.82 1017.41 1017.04 1016.68 1016.35 1016.07 1015.88 1015.70 1015.52 1015.28 1014.97 1014.81 1014.76 1013.09 1008.78 1007.15 1007.82 1008.06 1008.80 1008.19 1008.06 1007.07 1006.30 1005.51 1005.46 1004.58 1004.04 1003.73 1003.72 1003.72 1003.45 1003.34 1003.20 1003.41 1003.57 1002.81 1003.55 1004.32 1005.02 1005.34 1005.75 1005.89 1006.41 1007.20
1018.46 1017.87 1017.36 1016.92 1016.50 1016.18 1015.93 1015.68 1015.47 1015.25 1015.02 1014.76 1014.60 1013.73 1010.86 1007.65 1007.03 1007.26 1007.54 1007.74 1007.69 1007.34 1006.59 1006.24 1006.09 1005.63 1004.82 1003.83 1004.10 1003.89 1003.68 1003.86 1003.38 1003.25 1003.16 1003.60 1002.87 1003.37 1004.29 1004.92 1005.31 1005.86 1006.39 1006.96 1007.56
1018.43 1017.86 1017.29 1016.77 1016.31 1015.92 1015.64 1015.37 1015.16 1014.92 1014.73 1014.49 1014.41 1012.88 1008.53 1007.26 1007.03 1007.17 1007.18 1007.11 1007.32 1007.27 1006.92 1006.62 1006.29 1005.83 1005.09 1004.57 1004.22 1003.54 1003.44 1003.34 1004.05 1003.52 1003.22 1003.75 1003.21 1004.63 1004.89 1004.51 1004.59 1005.56 1006.38 1007.13 1007.94
1018.35 1017.68 1017.12 1016.59 1016.09 1015.64 1015.29 1014.93 1014.49 1014.38 1014.39 1014.21 1013.58 1011.29 1007.33 1007.98 1007.18 1006.74 1006.88 1006.65 1007.10 1007.07 1006.93 1006.93 1006.50 1005.50 1004.58 1004.17 1003.56 1004.27 1004.09 1005.37 1005.05 1003.19 1003.40 1003.29 1002.99 1004.15 1004.21 1004.40 1004.74 1005.26 1006.11 1006.93 1007.83
1018.31 1017.53 1016.93 1016.31 1015.85 1015.43 1015.04 1014.78 1014.37 1014.25 1013.93 1012.80 1011.24 1009.79 1007.25 1006.31 1006.17 1006.50 1006.75 1006.66 1006.67 1006.74 1006.83 1006.42 1005.84 1004.93 1004.36 1004.87 1005.25 1005.31 1005.97 1005.55 1004.11 1003.95 1003.51 1002.64 1002.34 1003.50 1003.39 1004.05 1004.45 1005.06 1005.78 1006.55 1007.21
1018.27 1017.45 1016.75 1016.13 1015.62 1015.19 1014.61 1013.89 1013.47 1012.06 1010.81 1008.39 1007.54 1006.69 1005.63 1005.75 1006.37 1006.34 1006.46 1006.50 1006.21 1006.15 1005.84 1005.33 1004.72 1004.08 1004.73 1006.49 1004.24 1004.17 1003.69 1003.18 1002.60 1003.02 1002.42 1002.37 1002.37 1002.30 1002.54 1003.06 1004.00 1004.68 1005.57 1006.36 1006.75
1018.09 1017.41 1016.57 1015.96 1015.44 1014.91 1014.35 1010.70 1008.94 1008.48 1007.54 1007.30 1006.75 1006.22 1006.25 1005.68 1005.65 1005.59 1006.13 1006.03 1005.76 1005.29 1005.06 1004.84 1004.23 1004.78 1004.32 1003.93 1004.09 1003.60 1003.16 1002.75 1003.28 1003.42 1002.95 1002.48 1002.10 1002.02 1002.35 1002.28 1003.20 1004.03 1005.39 1006.23 1006.86
1017.85 1017.20 1016.37 1015.77 1015.23 1014.57 1011.47 1009.16 1008.60 1008.23 1006.75 1005.68 1005.98 1005.82 1005.52 1005.80 1005.06 1005.00 1005.71 1005.36 1004.85 1004.63 1004.62 1003.73 1003.98 1004.86 1003.77 1003.90 1003.75 1003.23 1003.78 1002.77 1002.28 1001.92 1001.68 1001.58 1002.12 1001.50 1003.15 1002.26 1002.74 1003.86 1004.76 1005.89 1006.64
1017.63 1016.97 1016.22 1015.53 1015.14 1010.48 1009.57 1008.75 1008.59 1008.43 1006.15 1004.88 1005.08 1005.06 1004.96 1005.25 1004.69 1004.12 1004.86 1004.74 1004.32 1003.90 1003.62 1003.28 1003.07 1003.28 1003.56 1003.35 1003.07 1002.51 1002.35 1002.74 1002.08 1001.95 1001.31 1001.53 1001.09 1000.90 1001.13 1001.55 1002.32 1003.28 1004.04 1005.16 1006.39
1017.27 1016.62 1015.99 1015.85 1013.15 1009.79 1008.90 1008.67 1008.50 1008.45 1004.72 1003.80 1003.76 1003.47 1004.33 1004.50 1003.43 1004.10 1004.25 1004.47 1004.21 1003.61 1003.98 1003.12 1002.75 1002.77 1002.79 1002.63 1002.75 1002.49 1002.46 1002.39 1002.34 1002.27 1002.17 1001.76 1002.28 1000.86 1002.64 1004.34 1003.10 1000.93 1003.89 1004.63 1006.22
1016.73 1016.19 1015.66 1014.03 1012.52 1009.45 1009.19 1008.92 1008.75 1007.10 1003.30 1003.01 1003.25 1003.69 1003.75 1003.87 1003.54 1003.27 1004.16 1004.57 1004.23 1004.03 1003.49 1003.07 1003.16 1002.86 1002.51 1002.74 1002.80 1002.61 1002.42 1002.37 1002.05 1001.79 1001.53 1002.85 1006.05 1002.70 1003.03 1002.67 1002.06 1002.25 1003.07 1004.36 1005.59
1016.06 1015.50 1015.40 1012.59 1009.44 1009.39 1009.10 1008.59 1006.99 1004.32 1002.61 1002.45 1002.67 1002.86 1003.10 1003.21 1003.31 1003.35 1003.69 1003.97 1004.11 1003.63 1003.00 1002.45 1001.90 1001.58 1002.06 1002.42 1002.08 1001.92 1002.21 1001.82 1000.98 1001.02 1001.17 1002.15 1004.24 1001.33 1001.32 1001.85 1002.07 1002.43 1003.26 1004.65 1005.95
1015.39 1014.50 1012.80 1011.26 1009.85 1009.76 1009.05 1007.81 1005.35 1003.12 1001.90 1001.77 1001.90 1002.38 1002.45 1002.33 1002.87 1002.99 1003.22 1003.02 1003.01 1003.08 1002.55 1002.24 1001.61 1001.76 1002.91 1002.65 1002.50 1002.57 1002.65 1002.15 1001.79 1001.87 1001.53 1001.29 1001.59 1002.34 1002.33 1003.03 1002.91 1002.66 1003.75 1004.78 1006.61
1014.56 1011.39 1010.44 1009.49 1009.80 1009.82 1008.34 1006.13 1003.95 1002.35 1001.89 1002.09 1002.01 1001.79 1001.87 1002.07 1002.55 1002.64 1002.70 1002.54 1002.90 1003.10 1003.26 1002.99 1002.23 1002.16 1002.29 1002.44 1003.16 1002.72 1002.62 1002.40 1002.79 1002.85 1002.52 1002.36 1002.24 1002.83 1003.22 1003.73 1003.60 1003.71 1003.94 1005.20 1006.65
1014.58 1010.72 1008.47 1009.38 1009.69 1009.21 1007.64 1005.20 1003.38 1003.28 1003.06 1002.69 1001.65 1001.67 1001.08 1001.44 1002.30 1002.09 1002.19 1003.04 1003.36 1004.43 1004.57 1004.30 1003.65 1003.27 1003.11 1002.74 1002.90 1002.76 1003.13 1003.27 1003.55 1005.19 1005.77 1003.71 1003.01 1003.28 1004.97 1004.79 1003.34 1003.74 1004.41 1005.68 1006.60
1014.07 1009.35 1008.74 1008.73 1009.26 1008.13 1006.21 1004.51 1003.80 1003.71 1003.76 1003.09 1001.96 1001.16 1001.25 1001.15 1001.43 1001.76 1002.05 1003.28 1004.21 1004.68 1005.27 1005.04 1004.78 1004.13 1003.48 1002.57 1002.06 1002.44 1003.23 1004.92 1006.20 1007.95 1007.69 1006.03 1005.12 1005.81 1005.68 1004.28 1003.81 1003.85 1004.32 1005.87 1007.13
1012.78 1008.52 1008.12 1008.46 1007.87 1006.65 1005.29 1004.53 1004.77 1004.38 1003.91 1003.50 1002.99 1001.95 1001.90 1001.82 1002.07 1002.28 1002.79 1003.89 1005.53 1005.87 1005.83 1005.84 1006.19 1005.07 1004.00 1003.25 1002.84 1003.42 1004.10 1004.77 1005.93 1007.01 1006.72 1007.42 1007.85 1007.36 1006.81 1005.74 1004.54 1004.31 1004.88 1005.59 1006.94
1013.01 1008.85 1007.82 1007.88 1006.34 1005.24 1005.13 1004.92 1004.77 1004.41 1003.68 1003.22 1003.02 1002.72 1002.76 1002.62 1003.11 1003.30 1003.76 1005.35 1006.47 1006.60 1007.18 1007.15 1006.63 1005.44 1003.88 1002.66 1003.28 1004.15 1004.59 1005.31 1006.66 1007.74 1008.22 1008.42 1007.38 1008.02 1008.02 1007.74 1007.79 1005.61 1004.94 1005.03 1006.60
1013.54 1008.65 1007.23 1007.39 1006.55 1006.17 1004.82 1004.80 1004.37 1004.22 1003.87 1003.49 1003.11 1002.79 1002.94 1002.98 1003.24 1003.76 1004.19 1005.85 1007.20 1007.67 1008.76 1008.78 1007.73 1006.75 1005.33 1004.44 1004.38 1004.51 1004.92 1005.50 1007.02 1008.13 1008.34 1008.48 1008.72 1009.66 1009.81 1009.64 1008.71 1007.68 1008.10 1007.93 1007.35
1012.78 1010.40 1010.22 1007.13 1006.56 1006.41 1006.18 1005.58 1004.34 1003.75 1003.89 1003.57 1003.27 1003.14 1003.04 1003.14 1003.03 1003.47 1004.11 1005.63 1007.15 1008.35 1008.62 1008.62 1007.77 1006.80 1005.69 1005.27 1005.24 1005.28 1005.64 1006.69 1007.43 1007.92 1009.44 1009.97 1010.77 1010.86 1010.81 1009.62 1009.44 1009.65 1010.16 1010.59 1009.98
1014.62 1013.39 1011.86 1009.63 1008.42 1007.52 1006.67 1005.58 1004.81 1003.74 1003.39 1003.37 1003.36 1002.96 1002.95 1003.10 1003.52 1003.59 1003.88 1005.22 1006.26 1007.54 1008.10 1008.40 1007.96 1007.08 1006.30 1005.35 1005.39 1005.82 1007.03 1007.82 1008.04 1009.09 1009.13 1010.28 1011.67 1011.33 1011.62 1011.31 1011.60 1012.00 1012.39 1013.18 1012.48
1016.52 1015.02 1013.74 1010.37 1008.36 1007.48 1005.83 1005.27 1005.02 1004.48 1004.19 1003.77 1003.02 1002.92 1003.29 1003.66 1004.61 1005.38 1006.04 1006.58 1007.05 1007.54 1007.65 1008.26 1007.90 1007.50 1005.98 1005.32 1005.81 1006.38 1007.64 1008.40 1009.15 1009.70 1010.15 1010.37 1012.23 1012.42 1013.18 1013.35 1013.51 1013.40 1013.53 1013.67 1013.13
Wind_Speed
14 13 12 11 10 9 8 8 7 7 8 9 8 9 10 11 15 11 13 1 5 12 6 10 10 11 11 12 7 10 9 4 2 17 6 10 5 6 3 4 4 4 7 8 15
16 14 12 12 10 9 9 8 7 8 8 9 9 9 10 10 12 16 10 9 10 10 14 11 6 4 11 5 5 13 8 20 5 6 5 8 3 7 6 8 11 10 11 7 13
17 16 14 12 11 10 9 8 7 7 8 8 9 10 10 11 13 19 13 12 10 11 17 10 8 8 10 6 1 3 4 6 7 12 5 1 8 6 6 8 18 9 17 13 13
17 17 15 13 12 10 9 8 7 7 8 8 9 9 9 12 12 10 8 11 11 14 15 12 11 14 5 1 2 9 4 6 8 4 4 7 13 6 3 11 6 5 2 11 11
17 17 16 15 12 11 10 9 8 8 9 9 9 8 9 11 5 10 12 10 11 13 13 9 10 8 9 4 3 8 3 4 6 7 4 7 10 6 5 4 3 3 3 10 9
19 18 16 15 12 11 10 9 9 8 9 9 8 7 9 16 9 13 13 13 13 14 12 9 7 8 11 3 8 5 6 6 2 3 5 9 10 3 8 1 2 1 2 5 7
18 18 17 15 14 11 10 9 9 9 10 10 8 8 13 5 3 8 11 13 13 10 11 4 8 10 10 10 3 7 10 15 6 2 5 10 13 10 6 3 3 3 4 5 6
19 18 18 16 15 13 11 10 10 10 10 10 7 11 8 5 1 6 9 10 10 8 9 8 8 12 14 6 14 17 8 11 1 7 2 10 2 10 5 3 4 5 5 6 7
20 19 18 17 16 14 12 13 9 9 9 7 8 10 6 5 9 9 8 10 10 9 7 7 11 14 14 15 14 15 14 23 9 10 5 10 13 22 6 1 5 4 6 7 10
21 21 19 17 16 13 12 8 2 7 8 9 9 8 9 13 11 6 9 6 12 10 9 12 11 16 8 20 5 2 11 14 29 7 20 12 12 7 8 6 6 6 7 8 11
22 22 20 18 15 14 9 6 8 9 12 10 15 12 13 7 7 9 10 13 14 12 15 19 15 12 2 24 19 15 13 15 9 13 4 11 14 13 7 8 10 7 7 7 9
23 22 21 18 17 9 8 9 8 8 7 15 6 8 6 1 11 11 12 13 14 15 19 15 12 25 26 9 13 18 17 15 4 19 4 16 15 14 12 9 9 8 8 7 12
23 22 21 19 14 5 11 7 7 8 9 17 13 16 11 12 13 15 15 18 15 18 14 16 9 24 11 12 16 16 16 21 20 17 15 20 16 6 15 23 10 7 9 11 14
24 22 21 21 4 3 10 8 6 5 8 14 16 12 11 10 14 10 17 18 13 16 14 14 11 8 12 16 14 16 13 16 18 18 17 18 16 17 13 15 14 13 11 12 12
25 22 21 10 11 9 8 2 7 5 8 15 15 8 14 18 5 16 11 18 14 13 8 14 10 11 14 13 13 18 18 18 20 19 22 21 20 8 17 22 16 11 14 12 15
27 24 21 6 7 9 5 3 6 9 4 10 12 13 17 16 14 9 14 12 13 14 15 15 14 16 18 13 18 19 20 16 22 20 18 4 8 11 7 11 4 7 11 9 15
30 25 11 8 3 2 5 8 9 14 9 11 15 17 17 14 16 12 15 17 14 15 18 21 20 18 5 10 17 17 12 15 14 14 11 9 14 13 8 7 6 5 10 9 15
33 25 8 9 5 6 6 10 11 17 7 8 10 14 15 14 15 14 12 13 18 17 14 13 14 8 7 9 14 15 17 14 22 17 18 22 19 11 14 4 4 0 11 14 12
33 6 7 5 7 5 9 12 13 14 4 6 11 12 15 12 9 11 14 16 5 14 9 15 15 12 9 6 11 18 14 20 14 21 19 10 15 11 8 11 5 7 11 13 13
9 8 2 6 7 7 9 16 11 4 6 8 13 14 16 16 13 12 9 2 1 3 6 12 17 15 17 17 12 21 14 16 10 10 14 18 7 8 6 12 11 10 12 12 14
7 7 8 7 7 8 10 16 14 2 5 11 15 9 14 5 10 12 3 8 3 5 6 12 12 14 18 17 14 9 9 3 10 6 8 18 6 21 1 9 4 7 11 12 9
6 7 8 6 9 10 12 17 5 10 11 9 8 8 10 5 6 7 3 3 5 4 10 8 8 15 19 19 17 6 14 15 10 12 11 4 12 9 12 20 10 3 12 18 20
7 9 6 7 9 10 11 7 8 14 11 9 9 9 7 5 5 8 2 10 4 5 9 10 7 14 12 10 7 6 11 9 7 8 16 16 10 6 14 20 31 8 4 17 16
6 6 7 7 9 11 6 9 14 15 15 6 10 8 9 12 6 7 7 7 3 4 3 2 9 14 13 17 15 15 16 12 4 3 12 14 13 10 7 8 19 14 17 15 12
4 5 6 4 5 4 5 14 10 14 13 13 12 13 12 11 13 12 11 12 8 8 5 5 11 14 15 15 16 13 13 14 12 12 5 15 11 8 11 7 11 13 19 14 19
7 6 9 13 11 10 7 12 13 13 6 14 15 14 16 12 8 4 8 3 6 8 6 4 9 10 15 19 5 10 7 6 5 7 11 10 6 13 13 12 12 14 15 14 9
8 7 7 9 10 11 7 5 7 3 3 14 12 15 9 9 9 8 5 4 6 7 6 5 8 10 13 3 8 3 3 3 3 7 11 6 6 11 13 12 12 8 8 9 14
Wind_Direction
4 357 353 351 347 344 338 332 328 322 318 316 316 311 310 313 298 235 236 180 163 175 229 236 233 244 244 256 255 273 282 91 298 101 174 141 150 118 78 208 151 120 31 85 135
1 359 354 351 348 343 339 332 326 320 311 308 308 307 304 318 269 241 175 125 144 194 224 221 228 250 251 241 242 257 100 276 153 119 35 126 311 130 248 170 169 167 120 141 149
0 358 355 352 345 340 333 328 319 308 303 299 300 297 297 298 255 220 149 140 178 216 263 292 280 267 256 246 69 340 128 293 82 31 352 350 236 220 238 28 13 29 148 157 167
355 358 355 349 343 337 331 319 309 303 302 296 294 294 305 248 211 92 149 141 179 220 252 261 250 248 258 245 94 292 124 335 62 91 326 296 343 289 283 43 14 10 36 159 177
350 351 351 347 341 334 326 319 306 299 296 289 289 297 270 215 248 113 140 145 185 218 248 260 281 299 321 351 227 239 331 308 133 248 290 337 262 353 43 31 4 16 221 168 180
345 345 345 343 339 332 321 311 302 291 289 286 285 300 241 238 98 142 155 175 212 220 234 255 323 353 279 293 289 332 283 248 267 262 223 288 306 215 106 92 107 340 103 136 150
340 340 340 340 338 331 319 305 291 281 276 276 273 265 261 360 88 156 185 201 220 227 258 285 311 293 330 265 347 282 257 230 192 151 316 320 274 5 82 140 144 148 142 128 147
339 339 338 337 335 328 318 300 283 263 256 262 260 251 260 101 340 191 191 201 201 236 265 303 298 289 272 280 250 244 212 267 205 223 191 269 267 345 175 229 206 152 154 144 145
338 337 337 335 334 328 318 307 283 232 226 226 229 234 223 136 210 193 211 192 194 216 237 284 270 271 275 241 254 356 327 350 233 189 314 268 288 174 145 86 274 195 172 175 143
338 336 335 332 330 322 311 292 147 182 213 214 267 243 216 205 168 169 193 236 195 203 229 239 243 250 248 333 350 48 275 195 248 87 246 254 277 287 173 213 237 214 183 181 164
337 334 333 330 329 314 283 189 202 189 218 210 182 235 137 104 143 192 184 201 215 208 231 214 243 253 0 221 235 227 297 302 343 302 290 281 304 305 279 198 248 212 206 196 156
335 334 331 330 327 312 258 251 35 354 232 218 262 253 293 214 192 182 189 206 210 228 223 228 235 337 297 331 301 296 286 284 356 263 288 276 275 274 293 239 238 214 203 209 142
333 333 329 330 327 251 235 251 325 333 251 177 205 212 192 215 228 177 201 215 206 237 229 259 226 223 261 293 283 280 292 297 295 305 283 267 299 227 234 227 206 179 197 199 160
330 332 329 327 282 195 219 214 250 331 263 151 199 222 196 220 233 231 190 233 235 253 268 262 303 304 310 281 280 279 291 280 287 300 295 313 285 284 266 182 201 173 178 181 158
328 329 325 306 319 245 50 249 298 237 260 148 170 174 197 210 221 201 195 230 262 261 225 277 255 230 238 280 301 291 299 306 289 281 277 270 305 292 63 253 9 219 180 185 152
326 327 327 201 222 283 267 279 234 233 222 152 149 189 206 202 232 148 198 230 265 276 284 280 271 279 276 279 290 289 283 274 269 267 270 91 201 267 178 324 309 101 147 175 153
323 320 300 309 5 347 256 220 229 248 131 147 171 176 199 185 220 191 189 210 232 232 236 243 244 247 297 296 277 259 306 283 279 253 247 256 262 280 45 50 11 313 132 150 135
321 314 186 265 305 260 232 228 250 228 201 142 176 185 204 192 206 212 231 234 214 239 273 296 291 122 216 297 310 309 302 291 302 304 307 319 296 29 22 27 63 343 130 138 146
311 195 234 156 213 230 236 228 217 257 244 208 207 205 202 195 252 204 226 245 350 349 307 297 288 330 301 306 304 300 293 307 283 270 272 305 301 236 133 20 146 125 133 150 170
312 271 209 145 173 224 240 249 262 353 330 266 218 215 218 190 193 227 240 47 279 324 324 295 293 297 301 292 250 250 273 290 305 343 309 295 278 270 100 159 207 173 160 158 140
264 249 117 173 197 222 234 237 226 202 269 262 246 245 263 220 201 252 302 101 101 310 300 290 282 293 300 277 294 330 250 168 258 148 217 270 330 346 295 320 23 157 167 135 124
287 251 136 180 214 224 234 247 28 274 214 251 286 261 254 255 257 271 336 71 61 329 305 0 315 294 290 290 278 301 290 298 314 307 274 320 282 136 271 357 342 359 171 149 146
293 293 150 227 243 224 234 264 245 254 245 221 232 237 231 259 253 267 309 85 33 319 356 343 284 300 292 284 52 294 307 295 275 308 301 304 304 14 351 358 331 294 188 145 154
277 250 170 213 273 302 301 248 237 212 258 259 260 222 225 240 225 276 229 111 103 12 27 293 270 263 285 303 313 303 303 296 259 224 271 292 310 26 356 349 280 32 50 348 98
265 27 15 274 223 280 286 290 277 234 207 216 233 226 224 238 240 213 237 143 167 139 225 268 277 284 290 311 294 311 312 359 322 310 354 289 43 352 330 309 5 62 54 44 352
336 344 345 293 294 275 226 249 251 242 241 213 242 222 244 229 265 279 6 326 288 164 268 194 285 293 296 273 289 290 32 314 306 360 302 71 69 34 36 47 55 61 66 63 356
4 323 272 288 241 253 284 219 247 0 245 279 209 237 222 73 39 34 13 337 294 263 252 263 297 297 288 327 306 221 353 9 325 9 322 308 47 51 48 43 31 33 108 186 219